OPAL - Orbit

View from above orbital plane
View from above orbital plane
View from above satellite
View from above satellite

Ground track
Ground track

The orbit data is extracted from the following two-line orbital elements,

1 26063U 00004C   13139.15424826  .00000144  00000-0  69163-4 0  6872
2 26063 100.1934 208.7297 0036903 187.7745 225.3266 14.36182085697468
Epoch (UTC): 19 May 2013 03:42:07
Eccentricity: 0.0036903
inclination: 100.1934°
perigee height: 745 km
apogee height: 797 km
right ascension of ascending node: 208.7297°
argument of perigee: 187.7745°
revolutions per day: 14.36182085
mean anomaly at epoch: 225.3266°
orbit number at epoch: 69746

The dashed part of the orbit path shows where the satellite is in the earth's shadow,  

Developed and maintained by Chris Peat, Heavens-Above GmbH. Please read the updated FAQ before sending e-mail. Imprint. DLR